User: anonymous   Login
Location: *
(2.5500°S, 65.9667°W)
Time: 11:13:33
(UTC+00:00)
Language:

ARGOS - Orbit

View from above orbital plane
View from above orbital plane
View from above satellite
View from above satellite

Ground track
Ground track

The orbit data is extracted from the following two-line orbital elements,

1 25634U 99008A   22021.93232209  .00000001  00000-0  20120-4 0  9993
2 25634  98.4032  43.6769 0010708  31.0469 329.1338 14.19414347186251
Epoch (UTC): 21 January 2022 22:22:32
Eccentricity: 0.0010708
inclination: 98.4032°
perigee height: 819 km
apogee height: 835 km
right ascension of ascending node: 43.6769°
argument of perigee: 31.0469°
revolutions per day: 14.19414347
mean anomaly at epoch: 329.1338°
orbit number at epoch: 18625

The dashed part of the orbit path shows where the satellite is in the earth's shadow,  

DLR